Theta_e
313 313 313 313 313 313 313 313 313 313 312 313 313 313 313 313 313 302 295 302 306 316 317 312 308 305 303 298 300 300 289 288 289 290 292 294 294 301 304 301 304 308 327 338 346
313 313 313 313 313 312 312 313 313 313 312 312 312 312 312 312 304 298 308 314 317 319 309 307 303 300 298 296 295 295 291 292 294 295 292 297 296 299 302 302 303 313 335 343 345
312 312 312 312 312 312 312 312 312 312 313 312 311 312 311 311 294 295 313 319 318 321 315 309 307 299 294 294 293 291 293 298 297 299 299 297 297 301 300 300 301 309 337 341 341
312 312 312 312 312 312 312 312 312 312 312 312 311 311 312 304 283 297 321 322 319 311 307 308 299 292 290 292 294 288 293 298 298 302 300 298 300 300 300 302 304 306 335 340 339
311 312 312 311 311 311 311 311 311 311 312 312 312 312 306 294 294 305 316 312 306 305 300 302 294 291 287 290 292 292 294 296 296 299 301 303 302 300 302 306 308 307 321 338 339
311 311 311 311 311 311 311 310 310 311 311 312 312 312 300 290 303 306 306 305 304 300 300 300 297 297 292 291 291 293 295 295 296 296 296 299 300 300 304 307 305 305 331 337 338
311 310 310 311 311 311 310 310 311 311 312 313 313 309 299 295 305 304 304 302 304 304 300 300 299 295 295 293 297 296 292 295 296 296 294 297 295 297 303 305 304 303 321 336 337
311 311 310 310 310 310 311 312 312 313 315 314 314 307 295 306 305 304 304 304 306 305 304 304 300 295 292 294 292 289 288 285 293 297 297 297 290 298 301 302 301 301 305 325 332
311 311 311 310 310 310 312 312 312 314 315 315 305 298 292 309 306 309 306 303 304 305 303 306 298 293 292 287 283 286 282 285 290 298 296 296 292 298 301 300 300 299 301 318 315
311 310 311 310 311 311 311 311 311 314 312 311 308 296 299 300 306 308 307 306 302 300 298 297 292 287 285 283 279 282 284 287 288 294 294 293 294 297 299 301 300 298 299 307 311
310 310 310 311 311 311 308 300 296 294 302 296 296 297 299 304 306 303 306 302 301 296 289 293 286 283 286 286 288 288 286 286 291 296 294 294 294 296 299 296 297 296 297 299 305
310 310 311 311 311 310 303 298 300 299 292 299 299 299 302 303 297 301 305 297 295 289 291 288 285 291 291 291 288 286 285 285 290 293 293 293 293 297 298 297 296 296 297 298 299
310 310 310 310 310 302 298 301 305 301 290 296 300 300 299 301 298 300 303 299 294 291 291 289 290 293 291 288 287 286 284 285 287 292 294 293 290 293 298 300 298 298 298 299 300
309 309 310 310 301 298 298 304 303 301 285 291 295 297 300 300 297 305 306 300 296 291 293 292 296 292 289 286 287 282 289 289 289 289 283 292 282 290 296 296 298 298 296 298 299
309 310 310 308 298 297 300 301 301 299 276 293 294 303 300 296 298 301 307 300 293 293 292 289 290 289 287 288 290 286 290 290 291 289 286 288 284 291 295 293 297 298 296 298 299
309 309 309 302 298 301 303 301 300 284 277 289 294 293 292 295 296 299 300 302 299 294 295 293 298 293 291 293 291 292 288 288 288 287 281 286 286 288 290 295 298 299 296 299 299
309 309 306 305 298 301 301 298 282 278 291 287 289 291 290 291 293 294 292 290 289 285 286 290 291 295 295 288 292 290 283 277 276 280 279 289 286 288 295 298 300 296 297 298 299
307 306 305 306 303 302 298 289 278 287 287 293 291 290 288 291 291 291 290 287 294 291 287 283 281 291 295 290 287 287 284 276 270 279 280 291 284 290 297 299 300 299 299 298 297
305 300 301 303 304 301 292 279 279 287 292 290 289 286 287 290 290 290 289 287 292 292 284 284 284 295 294 294 293 286 283 288 285 287 282 289 290 297 297 296 297 297 298 296 301
295 297 298 301 303 297 288 283 286 294 294 292 282 288 284 286 287 288 288 292 292 295 292 288 283 292 293 295 294 288 291 281 284 278 280 284 286 287 292 293 296 294 295 305 322
295 294 298 302 300 292 281 283 290 296 294 289 286 287 288 286 288 288 288 292 295 294 295 290 286 286 290 288 285 288 285 287 287 287 280 280 284 300 301 298 293 299 310 322 326
291 286 299 300 289 286 284 289 295 293 295 293 292 289 287 289 288 288 287 291 297 295 289 292 290 283 286 293 294 291 289 288 284 284 286 284 284 303 302 302 309 314 319 323 325
289 290 298 296 282 282 287 290 294 292 292 292 290 294 294 290 286 290 291 297 298 293 291 293 289 277 282 287 290 289 292 292 289 291 288 282 287 310 308 309 313 316 320 321 321
288 283 288 288 288 283 283 286 287 294 293 294 292 295 292 289 292 289 290 294 296 295 299 298 290 286 277 282 287 288 290 291 292 286 288 292 299 305 307 310 314 316 317 316 316
288 284 286 281 284 285 284 287 286 286 292 293 292 292 290 286 288 289 290 291 294 297 295 295 286 287 289 291 292 291 290 291 292 293 290 297 297 303 308 311 313 314 313 312 311
287 287 293 289 287 285 286 285 285 288 289 289 290 292 292 288 289 286 289 289 289 294 290 294 286 288 287 293 292 290 293 294 295 295 293 299 299 307 310 310 309 310 310 308 307
293 293 293 288 285 283 283 285 287 290 292 294 293 292 290 291 294 294 294 293 293 292 288 290 289 287 278 291 290 286 291 293 295 297 297 295 302 304 302 303 303 304 305 304 304
Wind_Speed
17 18 18 18 19 19 19 20 19 18 18 17 17 17 17 19 21 6 7 10 9 13 8 6 3 4 1 4 4 4 3 12 11 12 9 1 3 1 2 5 8 5 11 11 21
19 20 20 21 22 22 22 21 21 20 18 17 16 16 15 17 14 11 13 11 14 11 3 3 6 3 3 4 5 6 8 12 4 9 5 10 2 4 5 8 15 15 6 21 25
21 21 21 22 23 23 22 22 22 20 18 16 15 14 14 11 5 7 6 12 11 13 6 3 6 5 4 3 5 6 17 10 3 6 6 4 3 3 3 10 5 7 16 26 26
21 22 22 23 24 24 23 24 22 19 17 16 14 12 12 2 5 2 9 11 11 11 3 2 4 5 3 6 3 7 6 16 3 4 3 2 4 6 10 15 7 5 9 23 25
22 23 24 24 25 25 25 25 22 20 18 15 11 10 4 2 12 5 13 12 8 5 4 4 3 5 5 4 6 8 7 7 6 12 11 11 14 6 18 15 12 10 11 18 21
23 23 24 25 26 26 26 25 22 22 18 13 9 7 2 6 6 6 6 7 2 2 4 5 4 6 4 6 7 4 13 8 7 12 7 11 14 4 14 6 9 8 16 18 22
22 24 24 26 26 26 27 25 21 22 18 12 8 5 3 16 4 3 5 5 3 1 5 3 5 3 1 5 9 7 16 16 16 5 6 5 13 27 19 11 13 10 8 17 18
23 23 25 26 27 27 26 26 23 21 12 6 10 4 9 6 6 8 3 5 7 8 7 11 6 5 5 5 7 3 4 4 6 8 8 12 22 33 8 9 12 11 9 12 9
24 25 25 27 27 27 26 26 24 11 7 13 6 5 11 6 4 7 8 5 3 4 7 9 6 6 4 2 4 4 6 7 5 11 6 15 19 20 7 8 10 10 9 12 6
26 27 27 27 27 25 25 22 9 8 7 5 5 2 5 4 4 4 10 7 7 2 2 5 2 3 3 4 12 8 10 5 6 7 12 17 23 7 3 14 13 10 8 9 15
28 27 28 26 25 21 13 6 6 2 3 7 7 4 13 5 6 7 4 4 5 4 6 4 4 11 15 10 11 9 14 15 4 8 7 25 16 15 11 7 9 9 8 9 12
29 28 29 27 24 20 4 2 5 4 8 6 13 8 13 8 6 13 5 6 6 9 4 1 16 15 8 10 11 13 15 15 14 15 13 16 18 13 9 9 9 10 8 10 7
27 28 28 27 26 2 2 6 4 5 1 8 5 4 3 7 8 8 1 2 4 5 7 13 11 5 15 14 16 16 19 14 13 11 15 13 13 8 10 14 8 7 9 8 14
28 27 26 25 4 4 5 2 4 2 4 6 3 3 6 15 5 5 3 2 1 6 7 14 15 20 19 15 15 18 15 15 14 9 8 2 5 10 18 10 14 10 10 10 10
29 26 23 9 4 3 0 2 2 4 4 13 3 5 13 3 9 4 1 2 11 11 5 8 5 13 16 21 16 13 14 11 9 8 11 18 4 12 11 13 17 14 10 11 11
31 28 18 1 1 7 6 4 4 6 4 7 8 22 16 10 8 3 3 1 1 5 13 21 16 6 9 15 16 10 11 5 1 3 6 14 8 9 9 21 20 12 10 13 9
33 30 9 3 5 3 2 5 6 5 6 8 21 19 16 6 14 6 14 8 2 5 5 11 19 16 19 3 8 15 10 4 5 7 6 6 7 13 16 16 18 12 13 10 10
34 21 4 4 4 4 4 7 6 2 8 11 14 16 5 10 10 10 9 4 4 2 5 5 6 11 11 15 7 9 12 6 8 8 6 8 8 9 11 9 10 11 12 9 10
25 5 4 5 3 3 7 6 4 4 11 15 11 3 5 11 6 11 7 6 3 5 4 5 6 5 18 12 10 6 10 5 5 8 4 5 6 9 4 7 8 11 10 10 11
4 4 5 10 3 6 7 3 3 4 12 5 3 3 13 13 11 8 5 4 5 4 9 4 7 8 7 14 12 9 8 4 3 6 7 5 4 5 6 9 11 9 11 9 14
4 4 5 12 4 7 3 5 7 6 9 4 5 8 9 8 9 6 5 8 2 6 9 7 3 5 10 5 7 9 5 3 2 4 3 7 5 3 5 4 11 9 14 18 19
4 3 5 6 6 2 3 6 8 8 5 5 5 6 5 11 9 6 7 7 7 8 11 3 3 3 4 7 12 7 8 6 4 3 5 3 4 4 7 6 15 16 17 17 21
3 3 5 6 5 4 6 6 4 8 8 4 5 4 10 8 11 8 10 7 3 14 5 3 2 2 6 7 5 5 12 2 2 9 2 2 3 6 9 14 17 23 19 19 20
4 6 6 6 1 1 5 5 9 8 11 6 7 9 12 15 11 11 18 10 19 21 17 9 2 3 6 5 5 4 10 8 6 2 6 3 8 8 11 17 17 22 22 18 20
5 1 0 6 5 7 2 5 10 6 4 6 4 9 20 9 18 5 18 20 10 3 5 4 3 5 7 9 4 4 16 10 4 3 4 5 9 4 12 16 18 19 23 22 21
3 4 3 4 5 7 4 4 7 9 4 8 8 22 18 11 10 24 23 17 4 1 2 4 3 3 4 5 4 14 12 11 6 6 7 4 10 7 18 19 18 17 23 23 22
3 2 1 4 5 4 3 4 11 16 8 13 18 20 20 12 22 27 18 11 8 6 5 3 3 2 4 8 12 5 5 1 2 2 9 3 7 16 20 18 15 15 19 25 23
Wind_Direction
347 343 339 337 334 332 331 331 329 326 325 322 322 326 327 325 322 335 253 219 203 257 298 301 331 334 195 211 216 139 190 231 220 203 231 343 80 331 269 259 291 230 183 207 141
343 340 337 335 332 328 326 325 323 321 322 319 318 321 323 321 304 271 244 219 232 253 267 255 292 314 283 230 212 174 218 223 190 197 225 250 307 343 332 322 296 314 186 136 144
340 337 333 329 326 322 322 321 320 318 315 311 313 317 320 324 317 249 256 202 222 271 236 227 233 173 222 224 232 217 236 231 244 226 231 252 251 224 281 279 245 332 148 153 151
336 333 330 326 323 321 320 319 316 313 308 309 311 313 310 345 313 269 168 353 323 313 249 149 125 156 213 224 267 278 270 250 288 282 305 276 306 264 221 250 272 305 233 161 156
335 331 329 326 323 321 320 318 315 313 310 308 303 290 327 3 250 283 316 320 319 327 271 171 155 159 196 220 340 253 286 302 277 260 268 280 274 250 270 273 287 283 220 199 169
335 330 328 326 323 320 320 317 316 312 305 295 278 263 187 276 242 253 294 314 315 310 309 145 200 223 250 207 206 299 302 300 285 264 250 262 271 231 251 242 262 292 187 202 178
332 328 327 325 322 321 319 315 313 310 302 276 231 197 238 253 239 252 314 265 185 284 290 256 189 154 151 294 251 264 282 278 266 249 259 192 272 244 245 274 280 269 203 195 200
332 326 326 326 325 323 319 314 318 313 298 215 181 168 249 251 260 283 181 273 236 205 213 263 211 212 170 266 324 278 240 273 266 204 240 158 252 255 210 203 240 245 213 206 180
332 327 325 330 327 325 319 313 320 315 115 138 140 139 270 306 257 258 173 233 258 256 199 249 136 196 192 172 345 267 258 264 301 242 206 188 238 270 236 198 225 244 222 175 158
331 326 325 329 326 324 321 314 308 108 133 165 112 291 268 287 252 248 187 198 240 243 200 200 88 188 8 138 230 222 242 245 247 300 197 237 244 320 250 207 224 217 220 157 168
329 325 325 327 325 328 332 5 15 325 207 215 219 232 282 270 292 252 218 200 165 156 183 216 170 217 216 208 232 265 261 268 278 271 253 241 248 242 267 251 227 200 209 158 175
327 326 326 325 325 327 105 49 226 224 312 247 251 235 260 252 285 265 261 205 191 212 174 199 228 239 234 228 238 239 250 257 268 270 276 281 258 234 212 237 216 194 191 176 145
327 326 327 323 322 74 240 236 270 85 326 301 257 244 281 331 301 292 208 269 233 222 228 241 241 222 230 240 236 234 236 235 256 273 279 278 270 214 210 220 231 194 168 194 169
328 329 327 326 341 318 286 206 80 96 52 294 350 314 347 328 273 345 32 338 242 257 278 264 279 232 236 243 224 234 233 222 245 240 243 226 275 209 207 212 228 199 166 185 200
329 331 327 317 282 327 262 1 181 61 0 327 327 259 314 225 270 266 298 63 253 254 175 246 238 207 229 226 214 238 224 202 247 245 323 274 234 232 171 210 219 216 173 194 184
330 329 332 96 293 245 315 341 53 47 307 324 341 319 331 310 313 301 244 47 37 280 252 255 253 239 252 230 213 209 178 152 189 85 240 238 198 221 182 198 209 193 168 186 178
329 326 318 165 248 314 317 52 35 74 343 305 320 327 325 287 318 317 322 298 290 297 242 278 247 218 217 268 193 190 152 156 210 199 241 212 215 254 212 203 202 166 175 176 158
327 321 208 226 288 341 51 50 57 235 292 307 314 310 270 7 321 324 300 284 189 248 293 290 307 189 185 217 175 185 163 187 172 186 213 153 206 253 210 186 174 149 167 155 148
327 327 323 300 307 85 66 49 230 301 316 326 326 314 290 325 331 310 293 269 241 195 251 286 262 152 176 183 191 182 176 136 78 267 152 144 260 298 152 157 158 155 151 165 146
333 336 306 323 54 54 65 276 269 264 328 306 275 323 309 314 314 324 299 234 297 213 186 272 278 288 182 170 197 174 137 103 109 220 159 206 194 188 161 188 174 137 146 136 131
21 28 285 341 62 41 93 251 288 315 337 295 265 297 284 301 299 301 263 293 289 308 306 244 238 14 128 210 158 154 132 103 9 258 216 153 237 98 271 289 137 146 138 134 133
359 27 318 357 50 34 324 293 278 328 329 283 296 257 269 298 307 275 252 259 274 347 310 262 306 290 183 303 152 177 157 143 175 206 245 141 248 334 252 215 135 131 130 127 124
1 279 330 50 64 322 302 293 293 320 320 317 281 249 288 306 310 263 283 237 357 343 284 305 272 6 349 355 0 165 162 117 11 295 8 117 268 356 77 121 131 122 121 121 121
41 3 332 33 71 33 315 277 337 299 305 339 263 282 307 304 281 286 281 301 337 303 288 226 253 244 198 213 153 149 155 167 190 282 312 348 104 94 118 121 123 120 119 118 120
27 17 114 319 334 330 267 277 323 340 296 306 285 305 317 304 305 262 309 313 312 307 314 186 249 211 252 239 196 148 143 193 253 227 285 53 100 63 125 120 121 117 117 117 112
58 13 330 283 294 318 341 310 302 322 283 284 299 318 314 299 300 303 309 319 300 272 287 315 272 20 295 267 198 136 118 80 247 137 301 247 70 72 93 96 105 122 120 112 110
311 303 197 295 306 341 279 311 288 318 276 262 306 315 324 313 307 293 287 269 264 300 181 249 311 7 5 93 102 89 6 166 243 157 225 109 109 89 90 84 94 111 112 112 109